Weather History for Clemson, SC

Change the Weather History Date:

Monday, March 4, 2013

  Actual Average Record
Temperature  
Mean Temperature 42 °F -  
Max Temperature 55 °F 63 °F 84 °F (1976)
Min Temperature 28 °F 37 °F 6 °F (1980)
Degree Days  
Heating Degree Days 24    
Moisture  
Dew Point 19 °F    
Average Humidity 43    
Maximum Humidity 78    
Minimum Humidity 21    
Precipitation  
Precipitation 0.00 in - - ()
Sea Level Pressure  
Sea Level Pressure 30.10 in    
Wind  
Wind Speed 3 mph (West)    
Max Wind Speed 8 mph    
Max Gust Speed -    
Visibility 10 miles    
Events      
Averages and records for this station are not official NWS values.
T = Trace of Precipitation, MM = Missing Value Source: NWS Daily Summary

Daily Weather History Graph

Daily Weather History Graph

Search for Another Location

Airport:

Trip Planner

Search our weather history database for the weather conditions in past years. The results will help you decide how hot, cold, wet, or windy it might be!

Date:

Astronomy

Mar. 04, 2013 Rise Set
Actual Time 6:56 AM EST 6:30 PM EST
Civil Twilight 6:31 AM EST 6:55 PM EST
Nautical Twilight 6:02 AM EST 7:24 PM EST
Astronomical Twilight 5:32 AM EST 7:53 PM EST
Moon 12:54 AM EST (3/4) 11:21 AM EST (3/4)
Length of Visible Light 12h 24m
Length of Day
11h 33m
Waning Gibbous, 52% of the Moon is Illuminated
Mar 4
Waning Gibbous
Mar 4
Last Quarter
Mar 11
New
Mar 19
First Quarter
Mar 27
Full

Hourly Weather History & Observations

Time (EST) Temp. Windchill Dew Point Humidity Pressure Visibility Wind Dir Wind Speed Gust Speed Precip Events Conditions
12:54 AM 30.9 °F 26.2 °F 14.0 °F 50% 30.05 in 10.0 mi WNW 4.6 mph - N/A   Clear
1:54 AM 30.9 °F - 14.0 °F 50% 30.06 in 10.0 mi Calm Calm - N/A   Clear
2:54 AM 30.0 °F 24.1 °F 14.0 °F 51% 30.07 in 10.0 mi WNW 5.8 mph - N/A   Clear
3:54 AM 30.0 °F - 12.9 °F 49% 30.08 in 10.0 mi Calm Calm - N/A   Clear
4:54 AM 28.9 °F 21.9 °F 12.9 °F 51% 30.11 in 10.0 mi West 6.9 mph - N/A   Clear
5:54 AM 28.0 °F - 12.9 °F 53% 30.13 in 10.0 mi Calm Calm - N/A   Clear
6:54 AM 28.0 °F 24.2 °F 21.9 °F 78% 30.14 in 10.0 mi ENE 3.5 mph - N/A   Clear
7:54 AM 30.0 °F - 23.0 °F 75% 30.16 in 10.0 mi Calm Calm - N/A   Clear
8:54 AM 36.0 °F - 17.1 °F 46% 30.17 in 10.0 mi Calm Calm - N/A   Clear
9:54 AM 39.9 °F 37.8 °F 19.9 °F 45% 30.17 in 10.0 mi Variable 3.5 mph - N/A   Clear
10:54 AM 44.1 °F 42.5 °F 16.0 °F 32% 30.17 in 10.0 mi Variable 3.5 mph - N/A   Clear
11:54 AM 46.9 °F - 12.0 °F 24% 30.16 in 10.0 mi South 8.1 mph - N/A   Clear
12:54 PM 50.0 °F - 15.1 °F 25% 30.12 in 10.0 mi NW 4.6 mph - N/A   Clear
1:54 PM 54.0 °F - 16.0 °F 22% 30.10 in 10.0 mi Variable 5.8 mph - N/A   Clear
2:54 PM 55.9 °F - 16.0 °F 21% 30.07 in 10.0 mi Variable 6.9 mph - N/A   Clear
4:54 PM 55.0 °F - 19.9 °F 25% 30.06 in 10.0 mi Variable 4.6 mph - N/A   Clear
5:54 PM 54.0 °F - 21.9 °F 29% 30.06 in 10.0 mi SSE 3.5 mph - N/A   Clear
6:54 PM 53.1 °F - 24.1 °F 32% 30.06 in 10.0 mi Calm Calm - N/A   Clear
7:54 PM 53.1 °F - 27.0 °F 37% 30.06 in 10.0 mi SSE 3.5 mph - N/A   Clear
8:54 PM 48.9 °F - 28.9 °F 46% 30.06 in 10.0 mi Calm Calm - N/A   Clear
9:54 PM 45.0 °F 43.5 °F 28.0 °F 52% 30.08 in 10.0 mi NW 3.5 mph - N/A   Clear
10:54 PM 46.9 °F - 26.1 °F 44% 30.08 in 10.0 mi Calm Calm - N/A   Clear
11:54 PM 46.0 °F - 26.1 °F 46% 30.07 in 10.0 mi Calm Calm - N/A   Clear